Skip Navigation Links
NOAA logo - Click to go to the NOAA homepage
NOAA's National Weather Service
Alaska Aviation Weather Unit
  NWS logo - Click to go to the NWS homepage
Left Navbar Graphic     09 AKDT = 17 GMT

   
NOAA is celebrating 200 years of science, service, and stewardship. Visit the NOAA 200th celebration Web site to learn more.
USA.gov is the U.S. Government's official Web portal to all Federal, state and local government Web resources and services.
Facebook
NWS on Facebook

Important Change Regarding the AAWU Web Presence

 

Over the last several months, the AAWU has been working to navigate its webpages to a nationally supported server. Security, as well as other needs, have necessitated the change.  In the process, we have made an effort to enhance the functionality of our website, as well as some of our products. As of June 20, 2017, aawu.arh.noaa.gov will be discontinued. The new AAWU web address is weather.gov/aawu. It is now live and will run in-parallel with the old site until it is discontinued. Please send any feedback or questions regarding the new webpages to nws.ar.aawu.webauthors@noaa.gov.  Thank you for your patience during this time of transition.
AAWU Home :: Display TAF Add Bookmark
TAF PABR 271124Z 2712/2812 18006KT P6SM SCT050 SCT100 BKN200
     FM271800 15010KT P6SM SCT050 SCT100 BKN200=
PABR 271153Z AUTO 15007KT 10SM OVC080 M03/M04 A2999=

PABR 271253Z AUTO 14008KT 10SM CLR M03/M04 A2999=

PABR 271353Z AUTO 16006KT 10SM SCT060 M03/M04 A3000=

PABR 271453Z 16009KT 10SM SCT200 M02/M04 A3001=

PABR 271553Z 17006KT 10SM BKN200 M01/M02 A3002=

PABR 271653Z 16006KT 10SM BKN200 M02/M03 A3003=


NOAA's National Weather Service
Alaska Aviation Weather Unit
6930 Sand Lake Road
Anchorage, AK 99502-1845
Disclaimer
Credits
Glossary
Privacy Policy
About Us
Career Opportunities
Contact AAWU Internet Services Site last modified: April, 17th 2012